TimeEDT,TemperatureF,Dew PointF,Humidity,Sea Level PressureIn,VisibilityMPH,Wind Direction,Wind SpeedMPH,Gust SpeedMPH,PrecipitationIn,Events,Conditions,WindDirDegrees,DateUTC
12:15 AM,55.4,50.0,82,30.00,10.0,South,3.5,-,N/A,,Clear,180,2013-04-09 04:15:00
12:35 AM,55.4,50.0,82,29.99,10.0,South,5.8,-,N/A,,Clear,190,2013-04-09 04:35:00
12:55 AM,55.4,51.8,88,29.99,10.0,SSW,4.6,-,N/A,,Clear,200,2013-04-09 04:55:00
1:15 AM,55.4,50.0,82,29.98,10.0,South,5.8,-,N/A,,Clear,190,2013-04-09 05:15:00
1:35 AM,55.4,51.8,88,29.98,10.0,South,5.8,-,N/A,,Clear,190,2013-04-09 05:35:00
1:55 AM,57.2,51.8,82,29.97,10.0,SSW,4.6,-,N/A,,Clear,200,2013-04-09 05:55:00
2:15 AM,57.2,51.8,82,29.96,10.0,SSW,5.8,-,N/A,,Clear,200,2013-04-09 06:15:00
2:35 AM,59.0,51.8,77,29.96,10.0,SSW,6.9,-,N/A,,Clear,210,2013-04-09 06:35:00
2:55 AM,60.8,51.8,72,29.95,10.0,SSW,5.8,-,N/A,,Clear,210,2013-04-09 06:55:00
3:15 AM,60.8,51.8,72,29.94,10.0,SSW,5.8,-,N/A,,Partly Cloudy,200,2013-04-09 07:15:00
3:35 AM,62.6,51.8,68,29.94,10.0,SW,9.2,-,N/A,,Scattered Clouds,220,2013-04-09 07:35:00
3:55 AM,62.6,51.8,68,29.94,10.0,SW,8.1,-,N/A,,Mostly Cloudy,230,2013-04-09 07:55:00
4:15 AM,64.4,51.8,64,29.94,10.0,SW,9.2,-,N/A,,Scattered Clouds,230,2013-04-09 08:15:00
4:35 AM,62.6,51.8,68,29.95,10.0,WSW,9.2,-,N/A,,Clear,240,2013-04-09 08:35:00
4:55 AM,62.6,51.8,68,29.95,10.0,WSW,9.2,-,N/A,,Clear,250,2013-04-09 08:55:00
5:15 AM,62.6,51.8,68,29.96,10.0,WSW,6.9,-,N/A,,Clear,250,2013-04-09 09:15:00
5:35 AM,60.8,51.8,72,29.96,10.0,WSW,5.8,-,N/A,,Clear,240,2013-04-09 09:35:00
5:55 AM,60.8,51.8,72,29.96,10.0,WSW,6.9,-,N/A,,Clear,240,2013-04-09 09:55:00
6:15 AM,60.8,51.8,72,29.96,10.0,SW,10.4,-,N/A,,Clear,230,2013-04-09 10:15:00
6:35 AM,60.8,51.8,72,29.97,10.0,WSW,9.2,-,N/A,,Clear,240,2013-04-09 10:35:00
6:55 AM,60.8,51.8,72,29.97,10.0,WSW,9.2,-,N/A,,Clear,250,2013-04-09 10:55:00
7:15 AM,60.8,51.8,72,29.98,10.0,WSW,9.2,-,N/A,,Clear,250,2013-04-09 11:15:00
7:35 AM,60.8,51.8,72,29.99,10.0,WSW,9.2,-,N/A,,Clear,250,2013-04-09 11:35:00
7:55 AM,62.6,51.8,68,29.99,10.0,WSW,10.4,-,N/A,,Clear,250,2013-04-09 11:55:00
8:15 AM,64.4,51.8,64,29.99,10.0,WSW,11.5,-,N/A,,Clear,250,2013-04-09 12:15:00
8:35 AM,64.4,51.8,64,29.99,10.0,WSW,10.4,-,N/A,,Clear,250,2013-04-09 12:35:00
8:55 AM,66.2,51.8,60,29.99,10.0,West,8.1,-,N/A,,Clear,270,2013-04-09 12:55:00
9:15 AM,69.8,51.8,53,29.99,10.0,WSW,13.8,17.3,N/A,,Clear,250,2013-04-09 13:15:00
9:35 AM,71.6,51.8,50,29.99,10.0,West,10.4,16.1,N/A,,Clear,270,2013-04-09 13:35:00
9:55 AM,71.6,51.8,50,29.99,10.0,West,15.0,18.4,N/A,,Clear,270,2013-04-09 13:55:00
10:15 AM,73.4,51.8,47,29.99,10.0,WNW,15.0,23.0,N/A,,Clear,290,2013-04-09 14:15:00
10:35 AM,75.2,51.8,44,29.99,10.0,WNW,17.3,24.2,N/A,,Clear,290,2013-04-09 14:35:00
10:55 AM,75.2,50.0,41,29.99,10.0,West,17.3,27.6,N/A,,Clear,280,2013-04-09 14:55:00
11:15 AM,77.0,51.8,41,29.99,10.0,WNW,16.1,24.2,N/A,,Clear,290,2013-04-09 15:15:00
11:35 AM,78.8,48.2,34,29.98,10.0,WNW,19.6,27.6,N/A,,Clear,300,2013-04-09 15:35:00
11:55 AM,78.8,48.2,34,29.98,10.0,WNW,20.7,28.8,N/A,,Clear,290,2013-04-09 15:55:00
12:15 PM,78.8,48.2,34,29.98,10.0,West,16.1,25.3,N/A,,Clear,260,2013-04-09 16:15:00
12:35 PM,80.6,48.2,32,29.98,10.0,West,16.1,21.9,N/A,,Clear,260,2013-04-09 16:35:00
12:55 PM,80.6,48.2,32,29.98,10.0,West,17.3,24.2,N/A,,Clear,280,2013-04-09 16:55:00
1:15 PM,80.6,48.2,32,29.97,10.0,West,15.0,27.6,N/A,,Clear,270,2013-04-09 17:15:00
1:35 PM,80.6,48.2,32,29.97,10.0,West,15.0,26.5,N/A,,Clear,270,2013-04-09 17:35:00
1:55 PM,80.6,46.4,30,29.97,10.0,West,15.0,26.5,N/A,,Clear,270,2013-04-09 17:55:00
2:15 PM,82.4,46.4,28,29.96,10.0,WNW,18.4,26.5,N/A,,Clear,290,2013-04-09 18:15:00
2:35 PM,82.4,44.6,26,29.96,10.0,WNW,18.4,23.0,N/A,,Clear,300,2013-04-09 18:35:00
2:55 PM,82.4,44.6,26,29.96,10.0,West,20.7,27.6,N/A,,Clear,280,2013-04-09 18:55:00
3:15 PM,82.4,42.8,25,29.95,10.0,WNW,15.0,23.0,N/A,,Clear,290,2013-04-09 19:15:00
3:35 PM,82.4,39.2,21,29.95,10.0,WNW,15.0,21.9,N/A,,Clear,300,2013-04-09 19:35:00
3:55 PM,84.2,42.8,23,29.95,10.0,WNW,17.3,21.9,N/A,,Clear,290,2013-04-09 19:55:00
4:15 PM,82.4,39.2,21,29.94,10.0,West,11.5,21.9,N/A,,Clear,270,2013-04-09 20:15:00
4:35 PM,82.4,41.0,23,29.94,10.0,West,13.8,23.0,N/A,,Clear,270,2013-04-09 20:35:00
4:55 PM,82.4,41.0,23,29.94,10.0,West,11.5,20.7,N/A,,Clear,280,2013-04-09 20:55:00
5:15 PM,82.4,42.8,25,29.94,10.0,West,11.5,-,N/A,,Clear,280,2013-04-09 21:15:00
5:35 PM,82.4,41.0,23,29.94,10.0,West,9.2,-,N/A,,Clear,260,2013-04-09 21:35:00
5:55 PM,82.4,41.0,23,29.95,10.0,West,10.4,-,N/A,,Clear,270,2013-04-09 21:55:00
6:15 PM,80.6,42.8,26,29.95,10.0,West,10.4,-,N/A,,Clear,260,2013-04-09 22:15:00
6:35 PM,80.6,41.0,24,29.96,10.0,West,9.2,-,N/A,,Clear,270,2013-04-09 22:35:00
6:55 PM,80.6,41.0,24,29.95,10.0,West,5.8,-,N/A,,Clear,270,2013-04-09 22:55:00
7:15 PM,78.8,41.0,26,29.95,10.0,West,5.8,-,N/A,,Clear,280,2013-04-09 23:15:00
7:35 PM,77.0,39.2,26,29.96,10.0,West,4.6,-,N/A,,Clear,270,2013-04-09 23:35:00
7:55 PM,77.0,39.2,26,29.96,10.0,Calm,Calm,-,N/A,,Clear,0,2013-04-09 23:55:00
8:15 PM,75.2,41.0,29,29.97,10.0,WSW,3.5,-,N/A,,Clear,240,2013-04-10 00:15:00
8:35 PM,73.4,41.0,31,29.97,10.0,SW,4.6,-,N/A,,Clear,220,2013-04-10 00:35:00
8:55 PM,73.4,42.8,33,29.98,10.0,SSW,5.8,-,N/A,,Clear,200,2013-04-10 00:55:00
9:15 PM,71.6,42.8,35,29.98,10.0,South,5.8,-,N/A,,Clear,190,2013-04-10 01:15:00
9:35 PM,71.6,42.8,35,29.98,10.0,South,5.8,-,N/A,,Clear,190,2013-04-10 01:35:00
9:55 PM,69.8,44.6,40,29.98,10.0,SSW,5.8,-,N/A,,Clear,200,2013-04-10 01:55:00
10:15 PM,68.0,44.6,43,29.99,10.0,South,5.8,-,N/A,,Clear,180,2013-04-10 02:15:00
10:55 PM,68.0,46.4,46,29.95,10.0,South,6.9,-,N/A,,Clear,190,2013-04-10 02:55:00
11:15 PM,69.8,48.2,46,29.94,10.0,SSW,6.9,-,N/A,,Clear,200,2013-04-10 03:15:00
11:35 PM,69.8,50.0,49,29.94,10.0,SSW,8.1,-,N/A,,Clear,210,2013-04-10 03:35:00
11:55 PM,69.8,51.8,53,29.92,10.0,SW,10.4,-,N/A,,Clear,220,2013-04-10 03:55:00